Lume 1 (43908 NORAD) Tracking and Keplerian Element Data

This shows tracking and keplerian element data for the satellite.

Feedback or suggestion? Click here.




ElementValue
Catalog43908
NameLume 1
Epoch Orbit28202
Epoch Day12.66795215
Epoch Year2024
RAAN261.1336
Inclination97.0977
Eccentricity0.0008514
Argument of Perigee116.2395
Mean Anonmoly243.9751
Mean Motion15.8279398
Decay Rate0.00279827
L11 43908U 18111AJ 24012.66795215 .00279827 00000-0 12898-2 0 9991
L22 43908 97.0977 261.1336 0008514 116.2395 243.9751 15.82793980282029



Live tracking and technical data element details for Lume 1 (NORAD 43908). Lume 1 can be tracked NOW for your location showing map with azimuth and elevation plus other details from your city location.







IsCatalogInMostPopularTable: catalog: 43908, numindb: 558
Update: records affected: 1



GetName: 43908 Lume 1

Hit Count: updated at: Thu, 23 Jan 2025 16:07:10 GMT